Wind_Speed
13 14 13 13 14 14 14 13 14 14 15 16 16 16 16 17 18 19 19 19 19 21 23 25 26 28 29 29 30 31 33 33 33 33 34 33 34 35 36 36 37 38 38 38
14 14 13 13 13 13 14 14 14 14 16 16 16 16 16 17 17 17 18 18 19 20 21 23 25 25 26 27 29 31 31 32 32 32 33 33 33 35 35 36 36 37 38 39
14 14 13 13 14 14 14 15 15 15 15 16 17 16 17 16 17 17 17 18 19 20 22 22 24 25 26 27 28 29 29 31 32 33 33 33 33 35 36 37 37 37 38 39
14 14 14 14 14 15 15 16 16 16 16 16 17 17 16 17 17 18 18 19 20 21 23 23 24 24 24 26 28 29 29 30 31 33 34 34 33 34 35 36 37 38 39 40
15 15 15 15 16 16 17 17 17 17 17 16 17 17 16 17 18 18 18 19 20 21 22 24 23 23 24 26 26 27 28 29 31 32 33 33 33 34 35 36 37 38 38 39
16 16 16 17 17 18 18 19 19 19 18 18 17 17 16 16 17 18 18 19 20 20 21 23 24 24 25 25 26 27 27 28 30 32 33 33 33 34 35 35 36 37 38 39
17 18 18 18 19 19 20 20 20 21 20 19 18 18 16 16 16 17 17 18 19 19 20 21 23 24 25 25 26 27 27 28 30 31 31 32 34 34 35 36 36 37 38 39
20 20 20 20 21 21 21 21 22 22 22 20 19 19 17 17 16 17 18 18 18 19 20 20 21 23 23 24 25 26 27 29 30 31 31 32 33 34 35 36 37 38 39 39
22 22 22 22 22 22 22 23 23 23 24 23 21 20 18 18 17 18 18 19 20 20 20 20 21 22 23 23 25 26 27 28 30 31 31 32 32 33 34 36 37 38 39 40
24 24 24 24 24 24 24 24 24 24 25 25 24 22 20 19 18 19 19 20 21 22 22 22 22 22 24 25 27 27 28 28 30 32 32 32 33 34 35 36 37 37 38 39
26 26 26 26 25 25 26 26 26 26 26 26 26 23 21 20 20 21 22 23 23 24 24 23 24 24 25 27 28 28 29 30 31 32 33 33 34 34 34 35 36 37 38 38
28 29 28 27 27 27 27 27 27 27 27 27 26 24 22 22 22 23 23 24 25 25 25 25 25 26 26 27 28 29 30 31 32 33 33 34 35 35 35 35 36 37 38 39
30 30 30 29 29 28 28 28 28 29 29 29 28 26 24 24 24 24 25 25 26 27 27 27 27 28 28 28 29 30 30 31 32 33 34 35 36 36 36 36 37 38 39 39
32 32 31 31 30 30 30 29 29 30 30 30 28 26 25 25 26 26 27 27 28 29 29 29 30 30 30 30 30 31 32 33 34 35 36 36 37 37 38 38 39 40 40 40
33 33 33 32 32 31 31 31 31 31 31 31 29 28 27 27 28 29 29 29 30 30 31 31 32 32 32 32 32 33 34 35 36 37 37 38 38 39 39 40 40 40 41 42
34 35 34 34 33 34 33 32 32 32 32 32 31 29 28 30 31 31 31 31 32 32 32 33 33 34 33 33 34 34 35 35 36 37 39 40 40 41 41 41 41 42 42 43
36 37 36 35 35 36 35 33 33 33 33 33 33 31 31 32 33 33 33 33 33 34 34 35 35 35 35 35 35 35 35 36 37 38 39 40 41 42 43 43 43 43 42 42
37 37 37 37 37 37 35 34 34 34 34 34 34 34 34 34 34 34 34 35 35 35 36 36 36 36 36 36 36 36 36 37 38 38 39 41 42 42 43 43 43 43 42 42
37 37 37 37 38 38 35 35 35 35 34 34 35 34 35 35 36 36 36 36 36 36 36 36 36 37 37 37 38 38 38 38 39 40 40 41 42 43 43 43 43 43 43 42
37 37 37 38 39 38 36 36 35 36 36 35 36 36 36 36 37 36 37 38 38 38 38 38 37 38 38 38 39 39 39 39 39 40 41 42 43 43 43 42 42 43 43 43
36 37 37 38 39 39 37 37 37 37 37 37 37 37 37 38 38 38 38 39 39 39 39 39 38 38 39 39 40 40 40 40 41 41 41 42 42 43 42 42 42 43 43 43
36 37 37 38 39 39 39 38 38 38 38 38 37 37 37 37 38 39 39 39 40 40 40 40 40 40 40 40 40 40 41 41 42 42 41 41 41 41 41 41 42 42 43 43
36 37 38 39 39 39 39 39 39 39 38 38 38 37 37 38 38 39 40 40 40 40 40 41 40 40 40 40 40 41 41 41 41 41 40 40 40 40 41 42 42 42 42 42
36 36 38 38 37 37 38 39 39 38 38 38 38 39 39 39 39 40 40 40 40 40 40 40 40 40 40 40 41 41 41 41 40 39 39 39 40 40 40 41 41 41 41 42
36 37 39 39 37 37 37 37 38 38 38 38 39 39 39 40 40 39 39 39 40 40 40 40 40 40 40 39 39 39 39 39 39 39 40 40 39 39 39 39 39 40 40 41
37 38 39 38 37 38 37 36 37 38 38 38 38 39 40 40 40 40 40 40 40 40 40 40 40 39 39 38 38 38 38 38 38 39 39 39 39 39 39 38 38 39 39 39
Wind_Direction
306 306 309 312 311 307 305 303 295 290 286 286 283 279 276 275 273 268 263 260 256 252 250 251 250 248 247 246 243 244 243 243 245 247 249 250 248 247 247 248 250 252 254 255
303 305 308 310 311 309 307 304 299 292 288 288 286 282 277 275 272 268 264 260 254 252 251 252 250 249 247 247 245 245 244 244 244 246 248 247 248 248 249 249 251 252 254 255
299 304 306 308 309 308 307 305 302 295 290 289 285 279 277 274 275 272 269 261 257 254 253 252 250 249 249 249 248 247 246 245 246 247 249 248 250 251 250 251 253 254 256 257
295 299 301 304 306 306 306 306 304 301 297 294 290 284 279 280 280 275 269 263 259 257 255 253 249 250 251 249 248 248 248 248 248 250 251 251 252 252 252 254 255 256 257 259
292 295 297 299 303 305 304 304 303 301 300 298 295 291 284 281 279 273 267 264 261 259 256 252 248 251 253 250 250 250 251 252 251 253 252 252 255 255 256 256 257 258 259 260
289 292 294 296 298 300 302 301 300 298 298 297 295 294 290 285 281 273 266 266 264 261 256 253 252 255 256 253 252 253 255 255 255 256 255 255 257 258 258 259 259 259 260 261
285 289 291 293 295 296 298 300 299 297 296 296 294 293 293 290 284 277 272 269 266 265 260 257 256 259 259 256 255 256 256 257 258 258 259 259 259 260 259 261 261 261 262 262
283 285 288 290 292 294 296 297 298 297 296 294 290 291 292 289 284 279 276 272 267 266 263 261 260 260 259 257 256 258 258 257 258 259 262 262 261 261 262 262 263 263 263 264
283 284 286 288 289 291 292 294 295 294 293 291 290 290 289 288 283 280 278 274 268 266 266 265 262 261 260 257 258 261 260 259 258 259 262 264 265 266 266 266 267 266 266 265
280 283 285 286 286 288 290 291 292 291 292 292 291 292 289 287 282 279 277 275 273 268 267 266 264 263 263 262 261 262 262 262 262 262 262 264 265 266 267 269 268 268 268 267
278 280 282 284 286 287 287 288 288 287 287 289 290 291 289 286 283 279 277 276 274 271 267 266 265 265 265 265 263 263 263 264 264 265 263 264 265 266 267 268 269 270 270 270
277 279 280 281 282 283 283 285 285 285 285 285 286 287 285 283 282 280 278 277 276 274 270 268 267 267 267 267 265 264 264 264 265 266 266 266 268 268 269 270 271 272 273 273
276 278 280 280 280 281 282 283 283 283 282 282 283 285 283 280 280 279 278 277 276 275 273 272 270 269 268 268 268 267 266 266 266 266 266 267 269 270 271 272 272 273 274 274
275 277 278 280 281 280 279 279 279 280 280 281 281 281 280 278 278 278 278 277 278 277 275 273 273 272 271 270 269 268 268 267 268 267 267 268 270 270 271 272 272 273 274 275
274 276 277 277 276 276 277 277 277 277 278 278 279 277 277 277 277 277 276 276 278 277 275 274 274 273 272 271 271 270 269 268 268 269 268 268 270 271 272 272 273 274 275 275
272 274 275 275 275 275 275 276 276 276 275 276 276 276 277 277 277 277 277 276 276 277 275 275 275 273 273 272 272 272 271 269 269 270 269 269 270 271 273 274 275 275 275 275
271 273 275 275 275 275 274 276 276 275 274 274 274 275 275 275 276 277 277 277 277 277 276 275 275 274 274 273 273 273 273 271 271 271 271 271 271 272 273 274 275 276 275 275
272 272 273 274 274 274 277 276 276 275 274 274 274 274 274 275 276 276 277 277 278 278 277 276 276 276 275 275 275 274 274 274 273 273 272 272 272 273 274 274 275 275 275 275
270 272 273 273 274 275 276 277 277 276 275 274 274 274 275 276 277 277 278 278 279 279 278 277 277 277 277 276 276 276 275 275 275 273 273 273 273 273 274 274 275 275 275 276
268 270 271 273 274 276 277 278 278 277 276 276 275 275 275 275 276 277 277 278 279 279 278 277 277 277 277 277 276 275 275 275 275 275 274 274 273 273 274 275 275 276 276 276
267 269 271 272 274 275 277 278 278 277 278 277 276 276 276 277 277 278 278 278 278 278 278 277 277 277 277 276 276 275 275 275 275 276 276 275 274 274 275 275 275 276 276 277
269 270 270 272 274 276 276 276 276 276 276 276 277 277 277 277 277 277 278 278 277 277 278 277 278 278 278 278 277 276 275 275 276 276 276 276 275 275 275 275 276 276 277 278
269 271 273 274 275 275 274 274 274 274 275 275 276 276 276 276 277 277 278 278 278 278 278 278 278 279 279 278 277 276 276 276 276 276 276 275 274 274 275 276 277 278 278 278
270 272 273 274 275 274 273 273 273 273 274 274 274 275 275 276 277 277 278 278 279 279 279 279 279 280 280 279 278 277 276 275 276 275 275 275 275 276 276 276 277 277 278 278
269 270 271 272 273 272 273 272 272 271 272 272 272 273 274 275 276 277 278 278 279 279 280 280 281 281 280 280 279 277 277 276 276 275 275 276 275 275 275 275 276 277 278 279
267 268 270 271 271 272 272 271 271 270 270 271 272 272 273 273 274 276 277 278 279 281 282 282 281 280 280 279 278 277 277 276 276 276 276 276 275 275 275 275 276 277 278 278
Height
5746 5745 5742 5739 5737 5734 5732 5729 5728 5726 5724 5722 5720 5719 5718 5717 5716 5716 5716 5717 5718 5719 5720 5721 5723 5725 5727 5729 5732 5735 5737 5740 5743 5745 5746 5748 5749 5751 5753 5755 5758 5760 5761 5763
5744 5742 5739 5736 5733 5731 5729 5726 5725 5723 5720 5718 5717 5716 5714 5713 5712 5712 5712 5712 5713 5714 5715 5717 5718 5720 5721 5723 5725 5728 5730 5733 5735 5737 5738 5740 5741 5743 5744 5746 5748 5750 5752 5754
5740 5739 5736 5733 5731 5728 5726 5724 5722 5719 5717 5715 5713 5712 5710 5709 5708 5707 5707 5707 5708 5709 5710 5711 5712 5714 5715 5717 5719 5721 5723 5725 5727 5729 5730 5732 5733 5735 5736 5738 5740 5741 5743 5744
5736 5735 5733 5730 5728 5725 5723 5721 5718 5715 5713 5712 5710 5708 5707 5705 5704 5703 5702 5702 5703 5704 5705 5706 5707 5708 5710 5711 5713 5715 5717 5718 5720 5722 5723 5725 5726 5727 5728 5730 5731 5733 5734 5736
5732 5731 5729 5727 5725 5722 5720 5717 5715 5712 5710 5708 5706 5704 5705 5702 5700 5699 5698 5698 5698 5699 5700 5701 5702 5703 5704 5705 5707 5708 5710 5712 5714 5715 5716 5717 5718 5719 5720 5722 5723 5724 5725 5727
5728 5726 5725 5723 5720 5718 5716 5714 5711 5708 5706 5705 5703 5701 5700 5698 5696 5695 5694 5694 5694 5694 5695 5695 5696 5697 5698 5699 5701 5702 5703 5705 5707 5708 5709 5710 5711 5712 5713 5713 5714 5715 5717 5718
5724 5722 5720 5718 5716 5714 5712 5710 5707 5704 5702 5701 5699 5697 5697 5694 5692 5691 5690 5690 5689 5689 5690 5690 5691 5692 5693 5694 5695 5696 5697 5698 5699 5701 5702 5703 5703 5704 5705 5705 5706 5707 5708 5708
5718 5717 5715 5713 5711 5709 5706 5705 5703 5700 5698 5696 5694 5692 5693 5690 5688 5687 5686 5685 5685 5684 5685 5685 5686 5686 5687 5688 5689 5690 5690 5691 5692 5694 5694 5695 5695 5696 5697 5697 5698 5698 5698 5699
5711 5711 5710 5707 5705 5703 5701 5699 5697 5695 5692 5691 5690 5688 5688 5685 5684 5683 5682 5681 5680 5680 5679 5680 5680 5681 5681 5682 5682 5683 5683 5684 5685 5686 5686 5687 5687 5688 5688 5688 5689 5689 5689 5689
5705 5704 5703 5701 5699 5697 5696 5694 5692 5689 5686 5684 5684 5683 5682 5681 5680 5679 5677 5676 5676 5675 5675 5674 5674 5674 5675 5675 5675 5676 5676 5677 5677 5678 5679 5679 5679 5679 5679 5679 5679 5679 5679 5679
5698 5697 5696 5695 5693 5691 5690 5688 5685 5683 5681 5679 5677 5680 5677 5675 5674 5673 5672 5670 5670 5669 5668 5668 5668 5668 5668 5668 5668 5668 5669 5669 5669 5670 5670 5670 5670 5670 5670 5670 5670 5670 5669 5669
5689 5689 5688 5687 5686 5684 5682 5681 5679 5677 5675 5673 5671 5675 5671 5669 5667 5666 5665 5664 5663 5662 5662 5661 5661 5660 5660 5660 5660 5661 5661 5661 5661 5661 5661 5661 5661 5661 5661 5660 5660 5659 5659 5659
5680 5680 5679 5679 5679 5677 5674 5673 5671 5669 5667 5666 5665 5668 5664 5662 5660 5659 5658 5657 5656 5655 5654 5654 5653 5652 5652 5652 5652 5652 5652 5652 5652 5652 5652 5652 5651 5651 5651 5650 5650 5649 5648 5648
5670 5670 5671 5671 5669 5667 5666 5665 5663 5661 5659 5658 5658 5659 5657 5655 5653 5652 5651 5649 5648 5647 5646 5645 5645 5644 5643 5643 5643 5643 5642 5642 5642 5642 5642 5642 5642 5641 5640 5640 5639 5638 5637 5636
5660 5660 5660 5660 5659 5658 5657 5656 5654 5653 5652 5650 5651 5650 5649 5647 5645 5644 5643 5641 5640 5639 5638 5637 5636 5635 5635 5634 5633 5633 5633 5632 5632 5632 5632 5632 5631 5631 5630 5629 5628 5626 5625 5624
5650 5650 5649 5650 5649 5647 5647 5646 5645 5644 5643 5642 5641 5641 5641 5638 5636 5635 5634 5633 5631 5630 5629 5628 5627 5626 5625 5624 5624 5623 5622 5622 5621 5621 5621 5620 5620 5619 5618 5617 5616 5614 5613 5612
5639 5639 5639 5639 5638 5636 5637 5638 5636 5635 5634 5632 5631 5633 5630 5629 5627 5626 5624 5623 5622 5621 5620 5618 5617 5616 5615 5614 5613 5613 5612 5611 5610 5610 5609 5609 5608 5607 5606 5605 5603 5602 5600 5599
5629 5628 5627 5627 5628 5626 5630 5627 5626 5624 5623 5622 5621 5621 5620 5618 5617 5616 5614 5613 5612 5610 5609 5608 5606 5605 5604 5603 5602 5602 5601 5600 5599 5598 5598 5596 5595 5594 5593 5592 5591 5589 5588 5587
5618 5617 5616 5615 5614 5615 5618 5616 5614 5613 5613 5612 5610 5609 5609 5607 5606 5605 5604 5602 5601 5599 5598 5597 5595 5594 5593 5592 5591 5590 5589 5588 5587 5586 5585 5584 5583 5582 5581 5580 5578 5577 5576 5574
5606 5606 5605 5604 5602 5603 5607 5605 5603 5602 5601 5601 5599 5598 5597 5596 5595 5595 5593 5591 5589 5588 5587 5585 5584 5583 5582 5580 5579 5578 5577 5576 5575 5574 5573 5572 5570 5569 5568 5567 5566 5565 5563 5562
5595 5594 5593 5592 5590 5591 5594 5593 5591 5592 5592 5589 5587 5586 5585 5584 5584 5583 5581 5580 5578 5577 5575 5574 5573 5572 5570 5569 5567 5566 5565 5564 5563 5561 5560 5559 5558 5557 5556 5555 5554 5552 5551 5549
5582 5582 5582 5581 5579 5583 5582 5580 5580 5579 5578 5576 5575 5574 5574 5572 5571 5570 5569 5568 5566 5565 5563 5562 5561 5560 5558 5557 5555 5554 5553 5552 5550 5549 5548 5547 5545 5544 5543 5542 5541 5539 5538 5537
5570 5570 5569 5570 5571 5570 5568 5567 5566 5566 5566 5565 5564 5563 5562 5561 5560 5558 5557 5556 5554 5553 5551 5550 5549 5548 5546 5544 5542 5541 5540 5538 5537 5536 5535 5534 5533 5531 5530 5529 5528 5526 5525 5524
5558 5558 5557 5557 5558 5557 5556 5555 5554 5554 5554 5553 5552 5551 5550 5548 5547 5546 5545 5544 5542 5541 5539 5538 5536 5535 5534 5531 5530 5528 5527 5525 5525 5524 5523 5522 5520 5519 5517 5516 5515 5514 5513 5511
5546 5545 5545 5545 5546 5545 5544 5543 5543 5542 5541 5541 5540 5539 5537 5536 5535 5534 5533 5532 5530 5529 5527 5525 5524 5522 5521 5519 5517 5515 5514 5513 5512 5511 5510 5509 5508 5507 5505 5504 5503 5502 5501 5499
5535 5534 5533 5534 5534 5533 5533 5532 5531 5530 5529 5529 5528 5527 5526 5524 5523 5522 5521 5520 5518 5517 5515 5513 5512 5510 5509 5507 5505 5504 5502 5501 5500 5499 5498 5497 5496 5494 5493 5492 5491 5490 5489 5487